User: anonymous   Login
Location: Brienzwiler
(46.7508°N, 8.1014°E)
Time: 08:33:07
(UTC+00:00)
Language:

Cosmos 1892 - Orbit

View from above orbital plane
View from above orbital plane
View from above satellite
View from above satellite

Ground track
Ground track

The orbit data is extracted from the following two-line orbital elements,

1 18421U 87088A   20272.88553291 +.00000914 +00000-0 +44192-4 0  9999
2 18421 082.5025 171.1811 0016619 068.7679 291.5328 15.17236714800236
Epoch (UTC): 28 September 2020 21:15:10
Eccentricity: 0.0016619
inclination: 82.5025°
perigee height: 503 km
apogee height: 525 km
right ascension of ascending node: 171.1811°
argument of perigee: 68.7679°
revolutions per day: 15.17236714
mean anomaly at epoch: 291.5328°
orbit number at epoch: 80023

The dashed part of the orbit path shows where the satellite is in the earth's shadow,  

DLR